Regional Weather Roundup
Issued by NWS

Home | Current Version | Previous Version | Text Only | Print | Product List | Glossary On
Versions: 1 2 3 4 5 6 7 8 9 10 11 12 13 14 15 16 17 18 19 20 21 22 23 24 25 26 27 28 29 30 31 32 33 34 35 36 37 38 39 40 41 42 43 44 45 46 47 48 49 50
000
ASUS45 KBOI 241910
RWRID

IDAHO REGIONAL WEATHER ROUNDUP
NATIONAL WEATHER SERVICE BOISE ID
100 PM MDT MON JUL 24 2017

NOTE: "FAIR" INDICATES FEW OR NO CLOUDS BELOW 12000 FEET
WITH NO SIGNIFICANT WEATHER AND/OR OBSTRUCTIONS TO VISIBILITY

IDZ012-014-242000-
SOUTHWEST IDAHO


CITY           SKY/WX    TMP DP  RH WIND       PRES   REMARKS
BOISE          MOSUNNY   88  50  27 VRB5      29.91F
CALDWELL       MOSUNNY   87  54  32 VRB3      29.89S
MOUNTAIN HOME  MOSUNNY   90  49  24 N3        29.90F
$$

IDZ016-017-242000-
SOUTHCENTRAL IDAHO


CITY           SKY/WX    TMP DP  RH WIND       PRES   REMARKS
BURLEY         MOSUNNY   90  42  18 VRB5      29.98F
JEROME         MOSUNNY   86  51  29 W3        30.00S
TWIN FALLS     MOSUNNY   87  45  23 NW10      30.00S
$$

IDZ019>023-242000-
SOUTHEAST IDAHO


CITY           SKY/WX    TMP DP  RH WIND       PRES   REMARKS
IDAHO FALLS    MOSUNNY   86  39  19 VRB5      30.04F
POCATELLO      SUNNY     89  51  27 NW15      30.02S
REXBURG        SUNNY     84  41  21 S6        30.04F
$$

IDZ006-010-011-018-031-032-242000-
CENTRAL IDAHO MOUNTAINS


CITY           SKY/WX    TMP DP  RH WIND       PRES   REMARKS
MCCALL         MOSUNNY   84  37  18 CALM      30.04F
HAILEY         MOSUNNY   82  48  30 SE8       30.09
STANLEY          N/A     76  41  28 SE9       30.18F
SALMON         NOT AVBL
CHALLIS        PTSUNNY   84  39  20 NW5       30.03F
$$

IDZ002-004-006-007-026-242000-
NORTHERN IDAHO


CITY           SKY/WX    TMP DP  RH WIND       PRES   REMARKS
LEWISTON       SUNNY     86  38  18 NW7       29.93F
LOWELL           N/A     90  52  27 S3        29.88F
COEUR D`ALENE  SUNNY     79  37  22 W10G18    29.97S
MULLAN PASS    SUNNY     70  37  29 VRB7      30.12R
$$



USA.gov is the U.S. government's official web portal to all federal, state and local government web resources and services.